Location: Macksville High School
(37.9611°N, 99.9654°W)
Time: 01:04:45
(UTC+00:00)

PSLV R/B - Pass Details

Date: 17 January 2021
Orbit: 567 x 598 km, 98.2° (Epoch: 07 March)

Event Time Altitude Azimuth Distance (km) Brightness Sun altitude
Rises 12:08:56 0° 160° (SSE) 2,763 7.8 -20.4°
Reaches altitude 10° 12:11:04 10° 158° (SSE) 1,873 6.9 -20.0°
Maximum altitude 12:15:05 69° 76° (ENE) 620 4.2 -19.2°
Drops below altitude 10° 12:19:11 10° 352° (N) 1,905 6.4 -18.4°
Enters shadow 12:19:40 - 352° (N) 2,103 6.6 -18.3°
